This is the latest recevied weather packets stored in our database for station/object K3HW. If no packets are shown the sender has not sent any weather packets the latest 10 day(s).
| Time | Temp. | Humidity | Pressure | Rain* | Wind** | Luminosity | Snow |
|---|---|---|---|---|---|---|---|
| 1778096491 | 17.78° C | 81% | 1010.9 hPa | 0 mm | - | 70 W/m² | - |
| 1778096189 | 17.78° C | 82% | 1011 hPa | 0 mm | - | 80 W/m² | - |
| 1778095886 | 17.78° C | 82% | 1011 hPa | 0 mm | - | 94 W/m² | - |
| 1778095582 | 17.78° C | 82% | 1010.9 hPa | 0 mm | - | 61 W/m² | - |
| 1778095278 | 17.78° C | 82% | 1011.1 hPa | 0 mm | - | 54 W/m² | - |
| 1778094975 | 17.22° C | 82% | 1011 hPa | 0 mm | - | 111 W/m² | - |
| 1778094671 | 17.22° C | 83% | 1011 hPa | 0 mm | - | 76 W/m² | - |
| 1778094369 | 17.22° C | 84% | 1010.9 hPa | 0 mm | - | 51 W/m² | - |
| 1778094065 | 17.22° C | 84% | 1011.1 hPa | 0 mm | - | 56 W/m² | - |
| 1778093763 | 17.22° C | 84% | 1011.1 hPa | 0 mm | - | 53 W/m² | - |
| 1778093459 | 16.67° C | 85% | 1011 hPa | 0 mm | - | 85 W/m² | - |
| 1778093156 | 16.67° C | 86% | 1011.2 hPa | 0 mm | - | 55 W/m² | - |
| 1778092854 | 16.67° C | 86% | 1011.2 hPa | 0 mm | - | 36 W/m² | - |
| 1778092549 | 16.67° C | 86% | 1011.5 hPa | 0 mm | - | 40 W/m² | - |
| 1778092246 | 16.67° C | 85% | 1011.3 hPa | 0 mm | - | 38 W/m² | - |
| 1778091944 | 17.22° C | 85% | 1011.5 hPa | 0 mm | - | 45 W/m² | - |
| 1778091641 | 16.67° C | 84% | 1011.5 hPa | 0 mm | - | 53 W/m² | - |
| 1778091339 | 16.67° C | 85% | 1011.5 hPa | 0 mm | - | 33 W/m² | - |
| 1778091035 | 16.67° C | 84% | 1011.3 hPa | 0 mm | - | 42 W/m² | - |
| 1778090731 | 16.67° C | 84% | 1011.6 hPa | 0 mm | - | 37 W/m² | - |
| 1778090429 | 16.67° C | 84% | 1011.6 hPa | 0 mm | - | 31 W/m² | - |
| 1778090125 | 16.67° C | 84% | 1011.6 hPa | 0 mm | - | 29 W/m² | - |
| 1778089821 | 16.67° C | 84% | 1011.6 hPa | 0 mm | - | 26 W/m² | - |
| 1778089520 | 16.67° C | 84% | 1011.7 hPa | 0 mm | - | 30 W/m² | - |
| 1778089216 | 16.67° C | 85% | 1011.6 hPa | 0 mm | - | 26 W/m² | - |
* Rain latest hour (hover to see other rain measurements)
** Current wind speed in m/s (hover to see current wind gust speed)